{"data":{"norad_id":46278,"intl_designator":"2020-061G","name":"GHGSAT-C1","alt_names":[],"object_type":"PAYLOAD","status":"ACTIVE","operator":null,"country":"CA","launch_date":"2020-09-03","launch_site_code":"FRGUI","launch_vehicle":null,"mission":null,"orbit_class":"UNKNOWN","rcs_meters":null,"size_class":null,"mass_kg":null,"dimensions":null,"purposes":[],"wikipedia_slug":null,"has_3d_model":false,"image_url":null,"decayed_at":null,"tle_current":{"epoch":"2026-09-19T12:36:32.228928Z","epoch_age_seconds":154556,"freshness":"FRESH","line1":"1 46278U 20061G   26262.52537302  .00134799  00000+0  60313-3 0  9999","line2":"2 46278  97.2017 351.3435 0002215 240.1964 119.9086 15.83835058338335","mean_motion":15.83835058,"eccentricity":0.0002215,"inclination_deg":97.2017,"raan_deg":351.3435,"arg_perigee_deg":240.1964,"mean_anomaly_deg":119.9086,"bstar":0.00060313,"rev_number":33833,"period_min":90.918558263155,"perigee_km":318.12339010523,"apogee_km":321.09049067082,"semimajor_km":6697.743940388,"source":"CELESTRAK","updated_at":"2026-09-20T09:00:14.754091Z"}}}